Location: Bad Salzschlirf
(50.3750°N, 9.3000°E)
Time: 04:23:58
(UTC+02:00)

ISS - Pass Details

Date: 13 July 2025
Orbit: 413 x 417 km, 51.6° (Epoch: 12 July)

Event Time Altitude Azimuth Distance (km) Brightness Sun altitude
Rises 23:32:44 0° 274° (W) 2,352 0.5 -13.5°
Reaches altitude 10° 23:34:50 10° 277° (W) 1,490 -0.5 -13.7°
Maximum altitude 23:38:10 68° 1° (N) 451 -3.5 -13.9°
Drops below altitude 10° 23:41:30 10° 85° (E) 1,492 -1.2 -14.1°
Enters shadow 23:42:31 - 87° (E) 1,907 -0.6 -14.2°
